DW2057 Weather Reports


time (UTC)temp
F
wind
direction
speed
knots
gust
knots
rain 1hr
in
rain 24hr
in
rain mn
in
humidity
%
barometer
mb
20260505124852 49 39 0.9 0.9 0.00 0.00 0.00 46 1026.7
20260505124510 49 39 0.9 1.7 0.00 0.00 0.00 47 1032.8
20260505124349 49 39 0.0 0.9 0.00 0.00 0.00 46 1026.5
20260505124005 49 39 0.9 1.7 0.00 0.00 0.00 46 1032.8
20260505123845 49 39 0.0 0.9 0.00 0.00 0.00 45 1026.4
20260505123505 50 39 1.7 1.7 0.00 0.00 0.00 43 1032.9
20260505123342 50 38 0.9 0.9 0.00 0.00 0.00 41 1026.5
20260505123005 51 45 0.9 1.7 0.00 0.00 0.00 40 1032.6
20260505122838 51 45 0.9 1.7 0.00 0.00 0.00 40 1026.7
20260505122505 51 45 1.7 2.6 0.00 0.00 0.00 40 1032.8
20260505122336 51 38 0.9 1.7 0.00 0.00 0.00 40 1026.5
20260505121832 51 47 0.9 0.9 0.00 0.00 0.00 40 1026.4
20260505121505 51 39 1.7 2.6 0.00 0.00 0.00 38 1032.8
20260505121329 51 36 1.7 1.7 0.00 0.00 0.00 37 1026.5
20260505120825 51 36 0.9 1.7 0.00 0.00 0.00 36 1026.5
20260505120321 52 38 1.7 2.6 0.00 0.00 0.00 36 1026.5
20260505120005 51 45 2.6 3.5 0.00 0.00 0.00 36 1032.6
20260505115820 51 46 1.7 1.7 0.00 0.00 0.00 36 1026.5
20260505115511 52 43 1.7 2.6 0.00 0.00 0.00 35 1032.6
20260505115317 52 45 0.9 1.7 0.00 0.00 0.00 36 1026.5
20260505115006 52 46 1.7 2.6 0.00 0.00 0.00 35 1032.4
20260505114815 52 30 1.7 2.6 0.00 0.00 0.00 33 1026.3
20260505114505 52 45 1.7 2.6 0.00 0.00 0.00 34 1032.4
20260505114311 52 38 2.6 2.6 0.00 0.00 0.00 33 1026.4
20260505114006 53 34 2.6 3.5 0.00 0.00 0.00 33 1032.3
20260505113808 53 64 2.6 2.6 0.00 0.00 0.00 32 1026.3
20260505113506 53 45 1.7 4.3 0.00 0.00 0.00 33 1032.4
20260505113304 52 44 0.9 4.3 0.00 0.00 0.00 32 1026.2
20260505113010 53 43 1.7 3.5 0.00 0.00 0.00 33 1032.2
20260505112800 53 37 1.7 1.7 0.00 0.00 0.00 32 1026.1
20260505112506 52 55 2.6 4.3 0.00 0.00 0.00 32 1032.1
20260505112258 53 44 1.7 1.7 0.00 0.00 0.00 33 1026.1
20260505112005 53 40 1.7 3.5 0.00 0.00 0.00 32 1032.0
20260505111759 53 39 0.9 2.6 0.00 0.00 0.00 31 1026.2
20260505111254 53 45 0.9 2.6 0.00 0.00 0.00 31 1026.0
20260505111005 53 39 2.6 4.3 0.00 0.00 0.00 31 1032.2
20260505110750 53 54 0.9 4.3 0.00 0.00 0.00 31 1025.7
20260505110248 53 42 1.7 4.3 0.00 0.00 0.00 30 1026.0
20260505102005 54 58 1.7 3.5 0.00 0.00 0.00 31 1031.6
20260505101722 54 37 1.7 2.6 0.00 0.00 0.00 31 1025.2
20260505101218 54 44 0.0 1.7 0.00 0.00 0.00 32 1025.1
20260505101005 55 62 1.7 4.3 0.00 0.00 0.00 31 1031.3
20260505100715 54 37 2.6 2.6 0.00 0.00 0.00 31 1025.4
20260505100212 55 56 1.7 2.6 0.00 0.00 0.00 29 1025.0
20260505100004 55 51 0.9 4.3 0.00 0.00 0.00 28 1031.2
20260505095707 55 57 1.7 2.6 0.00 0.00 0.00 29 1025.1
20260505095505 55 33 2.6 5.2 0.00 0.00 0.00 28 1031.3
20260505095205 55 41 2.6 4.3 0.00 0.00 0.00 27 1025.0
20260505095005 55 40 2.6 4.3 0.00 0.00 0.00 27 1031.1
20260505094700 55 35 1.7 6.1 0.00 0.00 0.00 28 1024.9
20260505094157 55 38 2.6 6.1 0.00 0.00 0.00 28 1025.0
20260505094005 55 40 2.6 3.5 0.00 0.00 0.00 28 1031.2
20260505093653 55 47 0.9 1.7 0.00 0.00 0.00 28 1024.9
20260505093504 55 51 2.6 2.6 0.00 0.00 0.00 28 1031.0
20260505093151 56 39 2.6 7.8 0.00 0.00 0.00 27 1024.8
20260505093004 56 48 2.6 8.7 0.00 0.00 0.00 27 1030.9
20260505092648 56 50 0.9 0.9 0.00 0.00 0.00 28 1024.8
20260505092505 56 39 0.9 4.3 0.00 0.00 0.00 27 1031.1
20260505092147 57 32 1.7 2.6 0.00 0.00 0.00 26 1024.8
20260505092004 57 41 1.7 4.3 0.00 0.00 0.00 25 1031.0
20260505091643 57 61 0.9 1.7 0.00 0.00 0.00 27 1024.5
20260505091141 57 65 0.0 2.6 0.00 0.00 0.00 27 1024.5
20260505091005 57 37 0.9 3.5 0.00 0.00 0.00 26 1030.7
20260505090638 57 64 0.9 1.7 0.00 0.00 0.00 26 1024.8
20260505090137 57 106 0.9 2.6 0.00 0.00 0.00 24 1024.5
20260505090005 57 47 2.6 3.5 0.00 0.00 0.00 24 1030.9
20260505085633 58 62 0.0 1.7 0.00 0.00 0.00 24 1024.2
20260505085505 58 65 0.9 3.5 0.00 0.00 0.00 24 1030.8
20260505085132 58 63 0.0 2.6 0.00 0.00 0.00 23 1024.5
20260505085004 58 33 1.7 3.5 0.00 0.00 0.00 23 1030.8
20260505084629 58 82 0.9 2.6 0.00 0.00 0.00 24 1024.4
20260505084505 58 33 0.9 2.6 0.00 0.00 0.00 24 1030.7
20260505084128 59 59 0.0 1.7 0.00 0.00 0.00 26 1024.3
20260505084004 59 85 1.7 2.6 0.00 0.00 0.00 25 1030.5
20260505083625 59 27 1.7 1.7 0.00 0.00 0.00 25 1024.2
20260505083121 59 160 0.9 4.3 0.00 0.00 0.00 24 1024.1
20260505083004 59 46 1.7 4.3 0.00 0.00 0.00 23 1030.5
20260505082617 59 355 0.9 5.2 0.00 0.00 0.00 23 1024.1
20260505082505 59 90 1.7 2.6 0.00 0.00 0.00 24 1030.5
20260505082114 60 29 1.7 2.6 0.00 0.00 0.00 23 1024.3
20260505082004 60 84 0.9 3.5 0.00 0.00 0.00 23 1030.6
20260505081610 60 115 0.9 2.6 0.00 0.00 0.00 23 1024.0
20260505081505 60 90 0.9 3.5 0.00 0.00 0.00 23 1030.5
20260505081108 60 85 0.9 2.6 0.00 0.00 0.00 22 1024.2
20260505081004 60 44 1.7 2.6 0.00 0.00 0.00 21 1030.3
20260505080603 60 37 0.9 2.6 0.00 0.00 0.00 20 1023.9
20260505080100 60 98 0.9 2.6 0.00 0.00 0.00 20 1024.1
20260505080005 60 67 1.7 2.6 0.00 0.00 0.00 20 1030.5
20260505075556 61 44 0.9 2.6 0.00 0.00 0.00 21 1024.1
20260505075505 61 11 2.6 3.5 0.00 0.00 0.00 20 1030.4
20260505075053 61 76 1.7 2.6 0.00 0.00 0.00 19 1024.0
20260505075004 61 76 1.7 3.5 0.00 0.00 0.00 19 1030.3
20260505074550 61 68 0.9 1.7 0.00 0.00 0.00 20 1023.9
20260505074505 61 68 0.9 2.6 0.00 0.00 0.00 20 1030.2
20260505074047 61 73 0.9 1.7 0.00 0.00 0.00 18 1024.0
20260505074004 61 73 0.9 2.6 0.00 0.00 0.00 18 1030.3
20260505073544 62 11 2.6 4.3 0.00 0.00 0.00 18 1023.8
20260505073043 62 35 0.0 2.6 0.00 0.00 0.00 19 1023.8
20260505073010 62 35 0.0 3.5 0.00 0.00 0.00 19 1030.1
20260505072538 62 100 1.7 1.7 0.00 0.00 0.00 17 1023.5
20260505072504 62 100 1.7 2.6 0.00 0.00 0.00 17 1029.9
20260505072035 62 36 1.7 5.2 0.00 0.00 0.00 17 1023.5
20260505072005 62 36 1.7 5.2 0.00 0.00 0.00 17 1029.9
20260505071530 62 110 2.6 4.3 0.00 0.00 0.00 16 1023.4
20260505071505 62 110 2.6 4.3 0.00 0.00 0.00 16 1029.8
20260505071029 63 101 1.7 2.6 0.00 0.00 0.00 15 1023.4
20260505071004 63 101 1.7 3.5 0.00 0.00 0.00 15 1029.8
20260505070526 63 150 1.7 5.2 0.00 0.00 0.00 16 1023.4
20260505070506 63 150 1.7 5.2 0.00 0.00 0.00 16 1029.8
20260505070022 64 101 0.9 4.3 0.00 0.00 0.00 14 1023.2
20260505070005 64 101 0.9 4.3 0.00 0.00 0.00 14 1029.6
20260505065518 64 89 0.9 2.6 0.00 0.00 0.00 15 1023.2
20260505065014 64 101 0.9 5.2 0.00 0.00 0.00 14 1023.0
20260505065005 64 101 1.7 5.2 0.00 0.00 0.00 14 1029.4
20260505064512 65 116 1.7 7.8 0.00 0.00 0.00 13 1023.0
20260505064505 65 116 1.7 8.7 0.00 0.00 0.00 13 1029.4
20260505064010 65 166 2.6 4.3 0.00 0.00 0.00 12 1023.0
20260505064004 65 166 3.5 4.3 0.00 0.00 0.00 12 1029.4
20260505063507 65 192 5.2 7.0 0.00 0.00 0.00 12 1022.9
20260505063505 65 192 6.1 7.8 0.00 0.00 0.00 12 1029.3
20260505063004 65 88 1.7 3.5 0.00 0.00 0.00 10 1029.3
20260505063002 65 88 1.7 2.6 0.00 0.00 0.00 10 1022.9
20260505062505 65 96 1.7 4.3 0.00 0.00 0.00 7 1029.2
20260505062459 65 96 1.7 4.3 0.00 0.00 0.00 7 1022.8
20260505061956 65 184 2.6 4.3 0.00 0.00 0.00 7 1022.9
20260505061504 65 224 1.7 2.6 0.00 0.00 0.00 9 1029.4
20260505061454 65 273 0.0 1.7 0.00 0.00 0.00 7 1023.0
20260505061005 64 196 1.7 1.7 0.00 0.00 0.00 8 1029.4
20260505060951 64 197 0.0 0.9 0.00 0.00 0.00 8 1023.0
20260505060449 64 175 0.0 1.7 0.00 0.00 0.00 7 1022.9
20260505060005 64 187 1.7 3.5 0.00 0.00 0.00 7 1029.3
20260505055945 64 187 2.6 2.6 0.00 0.00 0.00 7 1023.1
20260505055504 64 131 3.5 4.3 0.00 0.00 0.00 6 1029.3
20260505055441 64 162 2.6 5.2 0.00 0.00 0.00 8 1023.2
20260505055005 64 120 1.7 4.3 0.00 0.00 0.00 7 1029.3
20260505054938 64 151 2.6 4.3 0.00 0.00 0.00 7 1023.0
20260505054435 64 105 0.9 2.6 0.00 0.00 0.00 8 1023.0
20260505054005 64 355 0.9 3.5 0.00 0.00 0.00 7 1029.3
20260505053933 65 8 2.6 2.6 0.00 0.00 0.00 7 1023.0
20260505053505 65 181 2.6 2.6 0.00 0.00 0.00 7 1029.3
20260505053430 65 246 0.9 1.7 0.00 0.00 0.00 7 1023.0
20260505052927 65 301 0.9 2.6 0.00 0.00 0.00 8 1023.1
20260505052424 64 213 0.0 0.9 0.00 0.00 0.00 8 1023.0
20260505052005 65 210 2.6 3.5 0.00 0.00 0.00 7 1029.6
20260505051921 65 198 0.9 4.3 0.00 0.00 0.00 7 1023.1
20260505051418 64 299 0.9 1.7 0.00 0.00 0.00 9 1023.1
20260505050916 65 287 2.6 4.3 0.00 0.00 0.00 7 1023.1
20260505050505 64 220 2.6 5.2 0.00 0.00 0.00 8 1029.4
20260505050414 64 172 4.3 5.2 0.00 0.00 0.00 7 1023.1
20260505041505 65 219 2.6 2.6 0.00 0.00 0.00 6 1030.1
20260505041341 64 182 0.9 1.7 0.00 0.00 0.00 6 1023.8
20260505040838 62 189 2.6 4.3 0.00 0.00 0.00 9 1023.9
20260505040336 64 159 4.3 7.0 0.00 0.00 0.00 7 1023.9
20260505035833 65 260 0.9 2.6 0.00 0.00 0.00 6 1024.0
20260505035505 63 202 1.7 2.6 0.00 0.00 0.00 10 1030.0
20260505035328 62 266 1.7 4.3 0.00 0.00 0.00 10 1023.8
20260505035004 62 182 1.7 5.2 0.00 0.00 0.00 14 1030.3
20260505034826 62 98 3.5 5.2 0.00 0.00 0.00 13 1023.8
20260505034322 62 205 2.6 7.0 0.00 0.00 0.00 11 1023.9
20260505033820 63 300 0.9 4.3 0.00 0.00 0.00 9 1024.0
20260505033316 62 219 0.9 2.6 0.00 0.00 0.00 11 1024.0
20260505032815 64 313 1.7 2.6 0.00 0.00 0.00 12 1024.0
20260505032505 63 318 0.9 3.5 0.00 0.00 0.00 14 1030.4
20260505032310 63 283 1.7 1.7 0.00 0.00 0.00 13 1024.2
20260505032004 63 209 2.6 4.3 0.00 0.00 0.00 12 1030.4
20260505031808 63 209 2.6 4.3 0.00 0.00 0.00 13 1024.1
20260505031304 63 324 0.9 2.6 0.00 0.00 0.00 15 1024.1
20260505031005 62 260 0.9 2.6 0.00 0.00 0.00 16 1030.5
20260505030802 62 198 5.2 7.8 0.00 0.00 0.00 15 1023.9
20260505030258 62 215 3.5 4.3 0.00 0.00 0.00 16 1024.0
20260505030005 62 22 1.7 5.2 0.00 0.00 0.00 17 1030.4
20260505025753 62 247 0.9 4.3 0.00 0.00 0.00 15 1024.2
20260505025505 62 170 3.5 6.1 0.00 0.00 0.00 17 1030.2
20260505025251 63 317 2.6 4.3 0.00 0.00 0.00 16 1024.0
20260505024749 62 222 0.9 0.9 0.00 0.00 0.00 18 1024.1
20260505024246 62 211 1.7 6.1 0.00 0.00 0.00 18 1024.2
20260505023744 63 191 2.6 2.6 0.00 0.00 0.00 18 1024.3
20260505023505 62 275 2.6 3.5 0.00 0.00 0.00 16 1030.4
20260505023240 62 231 1.7 2.6 0.00 0.00 0.00 16 1024.1
20260505022738 63 292 0.9 4.3 0.00 0.00 0.00 16 1024.1
20260505022504 63 335 1.7 3.5 0.00 0.00 0.00 17 1030.5
20260505022235 61 285 0.0 1.7 0.00 0.00 0.00 19 1024.2
20260505022005 61 203 3.5 6.1 0.00 0.00 0.00 19 1030.6
20260505021731 61 239 0.9 2.6 0.00 0.00 0.00 16 1024.0
20260505021228 59 317 2.6 5.2 0.00 0.00 0.00 18 1024.1
20260505021005 59 283 3.5 6.1 0.00 0.00 0.00 19 1030.5
20260505020724 60 294 1.7 5.2 0.00 0.00 0.00 19 1024.5
20260505020504 59 249 2.6 5.2 0.00 0.00 0.00 19 1030.7
20260505020219 59 267 2.6 4.3 0.00 0.00 0.00 20 1024.4
20260505020004 60 255 4.3 5.2 0.00 0.00 0.00 22 1030.7
20260505015717 61 219 3.5 4.3 0.00 0.00 0.00 20 1024.2
20260505015505 60 255 2.6 6.1 0.00 0.00 0.00 19 1030.6
20260505015214 61 282 2.6 4.3 0.00 0.00 0.00 20 1024.0
20260505015005 61 282 0.9 3.5 0.00 0.00 0.00 21 1030.6
20260505014711 60 282 1.7 2.6 0.00 0.00 0.00 23 1024.3
20260505014208 60 182 1.7 2.6 0.00 0.00 0.00 22 1024.3
20260505013705 58 285 1.7 6.1 0.00 0.00 0.00 24 1024.2
20260505013202 60 272 1.7 2.6 0.00 0.00 0.00 22 1024.5
20260505013005 59 250 0.9 2.6 0.00 0.00 0.00 24 1030.5
20260505012700 58 231 1.7 4.3 0.00 0.00 0.00 25 1024.4
20260505012504 58 225 2.6 3.5 0.00 0.00 0.00 25 1030.5
20260505012157 58 251 4.3 5.2 0.00 0.00 0.00 24 1024.4
20260505012005 57 249 2.6 4.3 0.00 0.00 0.00 25 1030.7
20260505011653 56 271 2.6 4.3 0.00 0.00 0.00 28 1024.2
20260505011150 55 266 1.7 2.6 0.00 0.00 0.00 28 1024.2
20260505011005 56 253 4.3 6.1 0.00 0.00 0.00 27 1030.9
20260505010645 55 258 2.6 5.2 0.00 0.00 0.00 30 1024.3
20260505010143 56 246 0.9 2.6 0.00 0.00 0.00 28 1024.4
20260505005638 56 318 1.7 4.3 0.00 0.00 0.00 29 1024.5
20260505005505 56 221 1.7 4.3 0.00 0.00 0.00 29 1030.7
20260505005136 55 289 0.9 2.6 0.00 0.00 0.00 28 1024.5
20260505004633 55 274 0.9 7.8 0.00 0.00 0.00 29 1024.4
20260505004505 56 170 3.5 5.2 0.00 0.00 0.00 27 1030.8
20260505004129 57 272 1.7 4.3 0.00 0.00 0.00 28 1024.4
20260505003626 55 198 0.9 1.7 0.00 0.00 0.00 30 1024.3
20260505003505 55 253 1.7 3.5 0.00 0.00 0.00 29 1030.7
20260505003124 55 241 0.9 4.3 0.00 0.00 0.00 30 1024.4
20260505003004 54 168 2.6 3.5 0.00 0.00 0.00 30 1030.7
20260505002620 53 213 0.9 1.7 0.00 0.00 0.00 32 1024.4
20260505002510 54 316 1.7 5.2 0.00 0.00 0.00 29 1030.7
20260505002118 53 215 1.7 2.6 0.00 0.00 0.00 33 1024.3
20260505002005 52 341 1.7 3.5 0.00 0.00 0.00 34 1030.6
20260505001615 52 318 4.3 6.1 0.00 0.00 0.00 32 1024.4
20260505001505 52 282 1.7 4.3 0.00 0.00 0.00 35 1030.3
20260505001113 51 189 0.0 4.3 0.00 0.00 0.00 38 1024.2
20260505001005 52 279 2.6 4.3 0.00 0.00 0.00 37 1030.4
20260505000609 52 228 1.7 5.2 0.00 0.00 0.00 37 1024.2
20260505000505 51 258 1.7 5.2 0.00 0.00 0.00 38 1030.3
20260505000108 51 225 2.6 5.2 0.00 0.00 0.00 38 1024.2
20260505000005 51 176 3.5 5.2 0.00 0.00 0.00 38 1030.4
20260504235604 52 211 2.6 4.3 0.00 0.00 0.00 36 1024.2
20260504235505 52 277 2.6 4.3 0.00 0.00 0.00 39 1030.7
20260504235100 51 291 0.9 2.6 0.00 0.00 0.00 38 1024.2
20260504235004 51 338 2.6 4.3 0.00 0.00 0.00 40 1030.5
20260504234557 51 247 1.7 2.6 0.00 0.00 0.00 40 1024.2
20260504234507 50 221 3.5 3.5 0.00 0.00 0.00 41 1030.6
20260504234054 50 224 0.9 2.6 0.00 0.00 0.00 41 1024.2
20260504234005 51 300 3.5 3.5 0.00 0.00 0.00 38 1030.4
20260504233549 50 266 2.6 2.6 0.00 0.00 0.00 38 1024.2
20260504233046 50 253 0.9 1.7 0.00 0.00 0.00 41 1024.1
20260504233005 50 162 0.9 1.7 0.00 0.00 0.00 41 1030.5
20260504232544 48 217 2.6 7.0 0.00 0.00 0.00 43 1024.3
20260504232504 48 171 7.0 7.8 0.00 0.00 0.00 42 1030.5
20260504232041 48 160 3.5 6.1 0.00 0.00 0.00 43 1024.1
20260504232005 49 53 4.3 5.2 0.00 0.00 0.00 42 1030.6
20260504231538 46 247 0.9 4.3 0.00 0.00 0.00 45 1024.1
20260504231034 48 178 5.2 7.0 0.00 0.00 0.00 41 1024.3
20260504231009 48 264 1.7 3.5 0.00 0.00 0.00 42 1030.6
20260504230530 48 253 1.7 2.6 0.00 0.00 0.00 42 1024.2
20260504230029 49 268 2.6 2.6 0.00 0.00 0.00 43 1024.1
20260504230006 48 292 0.0 1.7 0.00 0.00 0.00 45 1030.4
20260504225526 47 275 0.9 2.6 0.00 0.00 0.00 46 1023.9
20260504225505 47 238 2.6 7.8 0.00 0.00 0.00 46 1030.4
20260504225023 46 239 0.9 2.6 0.00 0.00 0.00 47 1024.0
20260504224520 45 208 2.6 4.3 0.00 0.00 0.00 50 1024.1
20260504224504 45 200 1.7 3.5 0.00 0.00 0.00 49 1030.2
20260504224017 45 253 0.9 1.7 0.00 0.00 0.00 50 1023.9
20260504223513 44 177 1.7 4.3 0.00 0.00 0.00 51 1023.5
20260504223009 44 177 2.6 2.6 0.00 0.00 0.00 54 1023.8
20260504223005 44 177 2.6 3.5 0.00 0.00 0.00 54 1030.1
20260504222506 44 235 0.9 1.7 0.00 0.00 0.00 56 1023.9
20260504222504 44 235 0.9 2.6 0.00 0.00 0.00 56 1030.2
20260504222005 43 274 0.9 2.6 0.00 0.00 0.00 57 1030.1
20260504221509 42 325 0.9 3.5 0.00 0.00 0.00 57 1030.2
20260504221501 42 325 0.9 2.6 0.00 0.00 0.00 57 1023.9
20260504220958 42 262 1.7 1.7 0.00 0.00 0.00 58 1023.8
20260504220454 41 159 0.9 2.6 0.00 0.00 0.00 59 1023.5
20260504220004 41 169 1.7 2.6 0.00 0.00 0.00 60 1030.0
20260504215951 41 169 0.9 1.7 0.00 0.00 0.00 60 1023.7
20260504215505 41 170 3.5 4.3 0.00 0.00 0.00 62 1029.7
20260504215447 41 170 2.6 4.3 0.00 0.00 0.00 62 1023.3
20260504215004 40 159 1.7 4.3 0.00 0.00 0.00 64 1029.9
20260504214944 40 159 0.9 4.3 0.00 0.00 0.00 64 1023.5
20260504214505 40 226 0.9 2.6 0.00 0.00 0.00 67 1029.9
20260504214441 40 226 0.0 1.7 0.00 0.00 0.00 67 1023.5
20260504214006 40 148 3.5 4.3 0.00 0.00 0.00 67 1029.7
20260504213937 40 148 2.6 4.3 0.00 0.00 0.00 67 1023.3
20260504213433 40 158 0.9 1.7 0.00 0.00 0.00 68 1023.2
20260504212931 39 177 1.7 2.6 0.00 0.00 0.00 69 1023.0
20260504212505 39 132 3.5 4.3 0.00 0.00 0.00 71 1029.3
20260504212426 39 132 3.5 4.3 0.00 0.00 0.00 71 1022.9
20260504211925 38 143 1.7 2.6 0.00 0.00 0.00 72 1022.9
20260504211420 38 172 0.9 2.6 0.00 0.00 0.00 73 1022.8
20260504210918 38 52 0.0 0.0 0.00 0.00 0.00 75 1022.3
20260504210415 37 62 0.0 0.0 0.00 0.00 0.00 75 1022.4
20260504210005 37 62 0.9 1.7 0.00 0.00 0.00 75 1029.0
20260504205912 37 62 0.9 0.9 0.00 0.00 0.00 75 1022.3
20260504205504 37 62 0.0 1.7 0.00 0.00 0.00 75 1028.8
20260504205410 37 62 0.0 0.9 0.00 0.00 0.00 75 1022.2
20260504205005 37 62 0.9 1.7 0.00 0.00 0.00 75 1028.5
20260504204908 37 161 0.9 1.7 0.00 0.00 0.00 75 1022.1
20260504204406 36 284 0.0 0.0 0.00 0.00 0.00 76 1022.0
20260504203905 36 284 0.0 0.9 0.00 0.00 0.00 75 1021.9
20260504203505 37 284 0.0 0.0 0.00 0.00 0.00 75 1028.6
20260504203402 37 284 0.0 0.9 0.00 0.00 0.00 75 1021.8
20260504203004 37 284 0.0 0.0 0.00 0.00 0.00 75 1028.3
20260504202857 36 284 0.0 0.0 0.00 0.00 0.00 75 1021.8
20260504202505 37 284 0.0 0.0 0.00 0.00 0.00 75 1028.0
20260504202355 37 284 0.0 0.9 0.00 0.00 0.00 75 1021.7
20260504202005 37 284 0.9 2.6 0.00 0.00 0.00 75 1028.2
20260504201851 37 284 0.0 1.7 0.00 0.00 0.00 75 1021.6
20260504201349 37 290 0.0 0.0 0.00 0.00 0.00 75 1021.5
20260504201004 37 291 0.0 0.0 0.00 0.00 0.00 75 1028.2
20260504200846 37 290 0.0 0.0 0.00 0.00 0.00 76 1021.8
20260504200343 36 280 0.0 0.0 0.00 0.00 0.00 76 1021.2
20260504200006 36 294 0.0 1.7 0.00 0.00 0.00 76 1027.8
20260504195839 36 294 0.0 0.9 0.00 0.00 0.00 76 1021.3
20260504195505 36 293 0.9 2.6 0.00 0.00 0.00 76 1027.6
20260504195334 36 300 0.9 1.7 0.00 0.00 0.00 76 1021.0
20260504195004 36 297 1.7 2.6 0.00 0.00 0.00 77 1027.6
20260504194832 36 298 0.9 1.7 0.00 0.00 0.00 76 1021.1
20260504194328 36 290 0.0 1.7 0.00 0.00 0.00 76 1021.2
20260504193824 36 286 0.9 1.7 0.00 0.00 0.00 76 1021.0
20260504193321 37 297 0.0 0.9 0.00 0.00 0.00 77 1020.8
20260504193005 37 296 2.6 2.6 0.00 0.00 0.00 76 1027.4
20260504192820 37 322 0.9 0.9 0.00 0.00 0.00 76 1020.8
20260504192504 37 320 0.0 0.0 0.00 0.00 0.00 76 1027.4
20260504192318 37 319 0.0 0.9 0.00 0.00 0.00 76 1020.8
20260504192005 37 303 2.6 2.6 0.00 0.00 0.00 76 1027.3
20260504191816 37 304 0.9 0.9 0.00 0.00 0.00 76 1020.5
20260504191313 37 300 1.7 1.7 0.00 0.00 0.00 76 1020.7
20260504190808 37 312 0.0 0.9 0.00 0.00 0.00 76 1020.5
20260504190505 37 314 0.0 1.7 0.00 0.00 0.00 76 1027.3
20260504190304 37 314 0.9 1.7 0.00 0.00 0.00 76 1020.7
20260504190004 37 315 0.0 1.7 0.00 0.00 0.00 76 1027.0
20260504185801 37 322 0.0 0.9 0.00 0.00 0.00 76 1020.6
20260504185505 37 327 0.0 0.0 0.00 0.00 0.00 76 1027.0
20260504185258 37 315 0.0 0.0 0.00 0.00 0.00 76 1020.3
20260504185004 37 314 0.0 0.0 0.00 0.00 0.00 76 1027.0
20260504184754 37 316 0.9 1.7 0.00 0.00 0.00 76 1020.1
20260504184250 37 297 0.0 0.0 0.00 0.00 0.00 76 1020.3
20260504184005 37 285 0.0 0.0 0.00 0.00 0.00 76 1026.7
20260504183746 37 281 0.0 0.0 0.00 0.00 0.00 75 1020.2
20260504183243 37 297 0.0 0.0 0.00 0.00 0.00 75 1020.1
20260504183004 37 292 0.0 0.0 0.00 0.00 0.00 75 1026.7
20260504182741 37 318 0.0 0.0 0.00 0.00 0.00 75 1019.8
20260504182505 37 356 0.0 0.0 0.00 0.00 0.00 75 1026.4
20260504182238 37 356 0.0 0.0 0.00 0.00 0.00 75 1019.9
20260504182004 37 356 0.0 0.0 0.00 0.00 0.00 75 1026.4
20260504181736 37 356 0.0 0.0 0.00 0.00 0.00 75 1019.8
20260504181505 37 357 0.0 0.0 0.00 0.00 0.00 74 1026.5
20260504181233 37 357 0.0 0.0 0.00 0.00 0.00 74 1019.4
20260504180732 37 356 0.0 0.9 0.00 0.00 0.00 74 1019.1
20260504180231 37 357 0.0 1.7 0.00 0.00 0.00 73 1019.5
20260504180004 37 358 0.0 0.0 0.00 0.00 0.00 73 1026.0
20260504175727 37 359 0.0 0.0 0.00 0.00 0.00 73 1019.4
20260504175505 37 359 0.0 1.7 0.00 0.00 0.00 73 1025.9
20260504175224 37 0 1.7 1.7 0.00 0.00 0.00 72 1019.1
20260504175004 37 345 0.9 2.6 0.00 0.00 0.00 72 1026.0
20260504174722 38 329 0.0 0.0 0.00 0.00 0.00 72 1019.0
20260504174505 38 328 0.9 1.7 0.00 0.00 0.00 72 1026.0
20260504174220 38 359 0.0 0.9 0.00 0.00 0.00 71 1019.1
20260504174005 38 359 0.0 0.0 0.00 0.00 0.00 71 1025.6
20260504173716 38 0 0.0 1.7 0.00 0.00 0.00 71 1019.0
20260504173504 38 302 0.9 1.7 0.00 0.00 0.00 70 1025.6
20260504173213 38 307 0.0 0.9 0.00 0.00 0.00 70 1018.7
20260504173004 38 307 0.9 2.6 0.00 0.00 0.00 70 1025.6
20260504172710 38 225 0.0 1.7 0.00 0.00 0.00 70 1018.4
20260504172206 38 283 0.0 0.0 0.00 0.00 0.00 69 1018.6
20260504171703 39 285 0.9 0.9 0.00 0.00 0.00 68 1018.6
20260504171200 39 271 0.0 0.9 0.00 0.00 0.00 68 1018.6
20260504170656 39 273 1.7 1.7 0.00 0.00 0.00 67 1018.5
20260504170505 39 243 0.9 2.6 0.00 0.00 0.00 67 1025.3
20260504170154 39 219 0.0 0.9 0.00 0.00 0.00 66 1018.4
20260504160112 41 289 3.5 4.3 0.00 0.00 0.00 62 1017.3
20260504151039 43 270 1.7 5.2 0.00 0.00 0.00 50 1016.1
20260504151005 43 185 1.7 5.2 0.00 0.00 0.00 49 1023.2
20260504150537 43 281 3.5 4.3 0.00 0.00 0.00 53 1015.9
20260504141003 46 301 2.6 4.3 0.00 0.45 0.45 47 1014.7
20260504140459 46 258 2.6 2.6 0.00 0.45 0.45 45 1014.7
20260504130505 48 279 4.3 6.1 0.00 0.00 0.44 46 1020.3
20260504130424 48 270 5.2 6.1 0.00 0.45 0.45 46 1013.3